Theta_e
305 305 306 308 311 311 310 308 306 305 304 305 305 305 306 307 307 307 307 313 311 308 315 316 316 315 313 313 315 315 311 313 316 318 318 319 316 319 317 318 318 319 320 332 353
304 305 306 308 309 310 310 308 306 305 304 305 305 305 305 306 307 315 311 317 310 308 311 313 313 315 315 312 311 310 307 311 313 314 314 315 314 314 315 315 317 317 320 331 345
305 308 306 309 310 310 309 307 305 305 305 305 305 305 305 306 307 316 314 313 308 308 310 314 315 315 313 312 312 309 308 311 313 314 315 314 315 314 314 314 315 316 316 317 329
306 307 308 308 310 310 308 306 306 305 305 305 305 306 307 306 307 314 315 311 309 311 311 312 314 314 312 311 313 312 312 311 312 313 312 312 313 313 314 314 315 316 316 316 318
306 307 308 308 310 310 307 306 306 306 307 308 308 307 307 307 307 310 314 315 314 313 313 314 314 313 311 311 313 311 311 313 314 314 313 313 312 312 312 314 315 315 316 316 316
306 307 308 309 309 309 307 306 307 309 310 309 309 307 307 309 315 314 314 312 312 313 313 314 314 314 313 312 312 313 313 313 314 313 313 312 312 313 314 313 314 314 315 316 316
305 306 308 309 309 308 307 307 310 311 311 310 312 313 311 310 315 313 314 314 313 313 313 313 313 313 314 312 314 314 312 312 313 312 311 313 312 312 314 314 313 313 313 314 315
305 307 308 308 308 308 308 309 313 313 312 314 314 316 315 316 314 313 313 314 313 313 313 313 314 314 314 314 314 312 312 311 312 312 313 313 311 313 314 314 313 313 313 313 313
305 307 308 309 310 310 314 314 313 314 314 316 315 316 316 316 315 314 313 313 313 313 313 313 313 314 314 313 311 310 311 312 312 312 311 311 312 313 314 314 313 313 313 313 313
305 306 308 311 313 313 314 313 311 314 314 313 316 316 314 312 313 314 313 313 313 313 313 312 312 311 309 311 314 314 313 316 318 316 316 316 311 312 314 314 314 314 314 314 314
305 306 308 309 313 314 315 314 310 312 312 311 311 312 312 313 312 312 313 313 313 313 310 312 309 309 311 312 314 315 316 318 318 317 317 316 314 312 312 314 313 314 314 315 316
304 306 307 308 313 314 314 312 310 310 310 311 312 311 313 313 313 312 312 312 312 311 310 310 310 311 312 313 314 315 318 318 317 316 316 315 313 313 312 312 314 314 314 315 316
305 306 307 309 313 314 310 309 309 310 310 312 315 314 313 313 312 312 312 313 311 311 311 310 311 312 314 313 316 316 317 317 317 316 315 314 315 313 313 313 315 315 315 315 316
306 306 308 308 312 309 309 309 310 314 312 317 316 314 313 313 312 312 313 312 312 313 313 312 312 314 313 313 314 315 315 316 318 316 316 315 318 315 314 314 314 315 315 316 316
307 308 309 308 310 310 310 309 310 315 311 314 311 312 311 310 311 316 315 315 314 314 314 313 313 313 315 315 315 315 315 315 315 317 315 315 316 316 314 314 314 313 315 315 315
309 310 310 310 310 310 311 314 314 315 315 312 310 310 310 314 315 314 313 313 312 314 313 313 315 315 316 316 316 316 316 314 314 314 318 316 315 315 312 313 313 313 315 316 316
310 311 312 310 310 311 315 315 314 316 311 310 309 310 310 312 314 313 313 311 311 313 315 316 317 316 314 314 316 318 319 319 315 313 318 315 316 315 314 314 314 314 314 315 315
311 314 314 312 311 310 313 312 317 311 310 310 310 311 311 312 313 314 312 311 316 317 316 314 317 316 314 313 316 318 319 321 321 317 315 316 317 316 315 314 315 316 316 316 316
312 315 316 313 311 311 313 311 309 311 311 311 311 311 311 311 312 312 312 314 317 314 316 316 317 315 314 313 313 317 316 317 318 319 322 317 316 315 314 315 315 315 316 317 315
312 315 316 311 313 311 310 313 310 311 311 311 311 311 311 311 311 311 312 313 316 314 312 315 316 313 313 313 312 313 315 317 319 320 319 317 318 317 317 317 317 316 316 318 318
312 315 313 311 313 312 308 308 311 312 312 312 311 311 311 311 311 313 314 313 314 314 312 313 315 313 312 313 312 312 316 316 317 318 318 316 314 316 316 317 316 317 318 319 319
312 310 314 311 310 308 309 311 312 312 312 311 311 311 310 309 312 314 314 314 314 313 314 312 313 313 312 311 311 312 312 315 317 315 320 321 319 316 317 318 318 318 318 319 320
312 312 313 312 306 306 309 312 313 313 310 310 309 309 309 310 310 314 313 313 313 313 313 312 313 315 313 311 315 316 315 315 315 316 316 319 317 316 315 316 317 318 319 318 319
312 308 310 310 309 309 309 310 313 310 310 308 307 310 309 309 309 309 312 312 313 313 313 314 309 313 316 314 314 314 314 313 314 317 315 318 317 316 316 316 317 317 317 316 319
312 308 311 306 308 308 308 310 310 310 308 308 308 309 312 309 310 310 311 311 311 311 312 313 314 313 312 312 312 312 313 315 316 315 317 315 315 315 314 314 316 318 318 317 318
309 310 310 309 309 309 307 308 310 309 307 307 308 311 311 310 310 311 310 310 312 313 313 310 313 314 315 313 313 314 315 316 318 317 315 315 315 315 314 314 320 320 320 319 319
308 306 310 309 308 307 306 308 309 307 308 308 310 309 310 310 311 310 311 311 311 311 308 307 309 312 314 312 312 317 313 313 314 316 318 319 316 314 315 318 318 319 318 320 320
Wind_Speed
26 24 22 22 22 23 22 19 16 13 12 11 13 14 17 18 16 14 10 3 8 8 4 4 4 1 3 6 11 13 2 2 4 3 6 22 10 21 24 18 23 21 24 17 36
27 25 23 22 22 22 21 18 14 12 11 11 12 14 17 19 18 10 1 4 4 6 5 7 4 9 5 6 4 4 3 6 6 6 7 17 13 25 20 21 13 29 23 15 11
29 27 25 24 23 21 19 15 12 11 10 10 12 13 15 15 12 8 6 6 3 7 6 5 9 9 4 2 6 5 6 10 15 25 27 23 25 27 8 10 14 20 27 26 9
30 28 27 26 24 20 16 12 10 10 9 10 12 13 13 10 1 3 3 3 3 5 8 2 9 6 3 4 5 3 6 9 15 22 22 12 23 19 11 19 20 22 25 24 20
32 31 31 26 23 19 13 11 9 10 10 12 13 14 11 6 5 4 2 5 9 7 2 4 9 8 4 6 16 4 4 17 19 22 19 18 9 13 17 19 23 24 25 25 24
33 32 32 27 21 17 12 9 9 10 12 12 13 12 9 3 5 3 3 4 3 2 3 6 5 10 2 7 4 14 20 22 23 25 21 8 12 20 35 22 25 26 27 25 30
34 32 30 24 19 14 11 9 8 10 11 11 13 11 8 2 6 3 5 4 6 5 8 6 7 7 9 7 10 23 11 12 15 13 9 18 9 10 32 38 22 26 34 30 32
34 33 28 21 16 13 11 9 9 10 8 10 9 13 4 6 4 8 10 9 8 10 14 15 11 8 5 4 8 6 5 5 4 6 14 7 11 18 32 33 36 28 36 32 33
35 31 24 17 13 10 10 9 13 8 4 9 5 8 3 6 11 5 6 5 9 12 13 11 16 9 4 2 5 4 5 11 9 4 9 5 16 15 25 26 32 29 32 37 35
36 31 21 12 11 7 9 10 17 2 2 7 2 6 4 13 15 9 6 8 8 13 13 9 6 3 3 4 6 6 7 8 12 15 14 18 16 12 21 14 23 21 23 29 37
37 31 18 10 6 8 9 9 14 2 12 13 15 15 23 11 12 9 12 12 14 14 5 18 0 7 13 12 14 9 13 14 16 16 10 15 17 15 13 14 18 28 24 30 32
38 33 18 10 6 8 11 12 15 10 11 16 16 21 19 16 12 14 10 14 8 7 5 4 7 15 13 16 12 11 16 19 19 16 13 14 13 12 9 8 21 25 30 31 32
38 34 17 10 2 7 10 18 10 15 5 11 8 7 8 10 6 17 13 20 9 7 7 6 9 8 4 7 9 14 16 16 15 19 15 7 18 10 6 8 22 28 35 35 33
40 30 15 8 1 11 14 14 16 16 4 5 2 4 6 10 5 23 24 16 3 5 5 6 4 6 10 12 7 14 8 12 13 6 5 4 15 21 11 12 14 24 28 35 31
39 20 15 11 4 9 16 21 11 10 4 3 7 4 25 8 17 15 12 5 3 7 3 8 8 8 12 17 14 17 14 17 17 13 3 5 7 24 8 11 12 11 27 35 41
36 13 13 17 11 13 18 12 6 5 3 6 5 8 17 13 12 14 16 18 12 3 6 9 7 6 13 10 11 14 13 7 6 2 12 14 10 17 9 17 17 12 26 34 32
32 8 10 18 14 16 15 11 5 4 6 7 6 7 7 10 7 5 6 7 3 7 5 6 4 3 5 8 7 12 5 3 3 1 11 13 12 19 8 11 11 16 20 28 36
29 4 4 14 17 15 17 5 5 8 5 4 9 10 5 11 6 5 6 5 6 4 4 4 7 5 8 9 5 2 5 3 5 4 4 3 7 6 12 14 23 26 24 29 35
28 5 4 12 10 11 7 5 2 3 5 5 5 3 4 11 7 6 4 0 2 5 2 5 6 15 21 11 7 4 5 6 5 3 6 5 7 9 14 8 6 11 14 21 29
24 7 6 20 13 9 5 3 3 6 7 3 3 2 6 8 5 6 3 4 3 4 5 2 13 10 9 7 12 12 7 4 3 3 5 4 6 8 4 4 6 10 11 24 25
21 5 12 22 5 3 2 5 6 19 14 4 3 4 5 7 3 3 5 7 2 4 6 4 6 6 6 5 5 3 2 1 3 4 4 4 5 7 4 1 5 9 21 22 27
18 3 11 21 7 3 2 6 14 12 20 3 2 2 4 7 5 4 6 4 9 5 3 3 4 6 10 19 13 11 8 6 4 4 5 3 5 10 3 4 1 13 23 18 14
19 8 11 10 3 3 7 7 6 15 5 3 3 4 4 4 5 5 9 8 7 5 6 4 4 4 6 3 3 3 6 6 6 4 10 10 4 2 4 9 2 13 14 18 15
11 4 9 7 12 1 4 5 6 14 8 13 9 4 6 5 4 7 14 4 6 11 17 10 4 7 9 13 6 11 17 15 11 5 8 15 12 13 10 13 8 13 10 17 17
9 4 5 4 7 12 5 6 9 8 5 19 4 8 5 4 5 6 9 20 15 28 8 7 5 7 16 19 20 20 20 20 15 17 13 18 13 14 15 16 7 9 10 21 14
8 5 7 21 15 4 3 4 4 10 6 7 12 10 2 4 5 20 20 13 6 2 4 2 3 4 12 16 15 15 10 15 6 15 18 20 18 8 15 12 5 8 11 16 19
10 9 7 7 5 4 3 4 13 12 7 16 7 4 7 6 26 34 32 25 14 6 2 2 3 3 5 9 14 3 7 10 13 12 6 5 3 6 8 10 6 15 20 21 21
Wind_Direction
3 360 357 354 351 349 347 343 337 335 335 335 340 340 339 336 332 317 297 229 17 18 22 16 19 303 230 259 241 254 343 271 272 274 267 294 311 308 321 318 339 337 345 293 182
3 1 359 356 352 348 345 344 339 338 337 335 335 332 336 334 335 3 186 173 32 5 316 333 33 5 241 242 238 154 143 241 225 260 285 297 297 306 320 324 337 336 344 20 124
3 2 359 355 351 349 348 349 346 343 340 332 327 329 329 336 337 14 104 118 26 26 34 28 351 334 282 295 249 234 226 251 263 264 271 278 289 292 291 296 318 325 329 333 336
1 359 356 352 348 349 353 358 350 349 344 334 325 325 327 335 9 27 84 139 21 20 353 335 350 22 335 312 325 275 282 273 282 296 292 277 281 284 262 279 300 310 314 319 320
359 357 355 352 349 351 358 2 0 358 351 339 328 327 335 322 291 238 271 317 300 313 2 21 347 355 352 316 346 162 312 320 311 309 302 299 285 286 291 301 309 309 305 310 310
359 357 355 353 352 354 3 13 4 0 355 348 344 338 334 323 16 95 223 16 32 35 36 335 351 357 35 346 6 315 325 317 317 311 313 290 294 309 295 304 307 308 304 307 305
359 356 354 354 355 1 10 7 6 356 353 353 346 342 320 34 136 2 274 288 7 324 284 296 299 308 307 333 328 318 315 315 293 304 297 311 311 282 297 299 297 300 296 299 294
359 356 356 1 3 8 6 7 352 352 2 354 349 341 314 52 243 270 275 261 253 306 291 284 274 252 226 274 323 308 298 289 313 305 291 301 281 280 280 286 290 290 291 290 287
359 358 357 7 15 16 17 15 350 333 360 349 336 348 306 331 294 257 256 277 238 283 294 292 304 238 230 66 356 327 272 277 302 257 274 189 267 271 276 276 280 283 281 286 288
358 357 357 8 27 34 18 9 356 312 356 335 260 339 289 305 315 245 225 218 233 245 279 274 286 175 9 88 265 261 291 288 298 299 315 311 259 255 262 258 283 298 298 294 289
358 357 354 356 359 25 6 15 3 336 303 274 267 258 284 311 301 289 248 230 236 237 231 263 90 253 247 214 233 250 270 277 280 276 294 283 280 265 258 265 284 293 294 297 297
356 354 350 345 317 351 0 356 357 308 309 300 271 264 274 276 283 293 252 244 245 231 250 336 246 246 252 255 233 237 257 268 273 273 277 285 267 263 262 244 259 265 279 279 283
354 352 350 350 358 1 22 4 345 323 308 296 241 251 260 204 247 282 257 252 218 238 256 234 250 290 319 326 297 243 243 259 262 283 274 297 281 285 263 261 271 272 269 271 275
354 353 356 360 57 11 358 350 341 328 51 285 239 282 354 265 276 312 296 242 222 236 244 239 258 314 301 287 269 279 241 259 279 314 265 109 286 271 271 255 256 265 270 274 276
353 2 19 13 344 355 344 340 332 315 46 119 31 9 345 349 301 2 19 349 295 254 234 249 294 287 283 270 267 268 269 268 267 266 272 218 268 270 205 252 246 253 263 271 275
356 6 20 23 18 348 354 354 311 43 351 356 40 331 352 6 1 17 14 7 328 268 256 278 264 249 252 279 290 265 274 310 280 185 255 243 223 273 223 242 253 240 246 259 267
356 9 32 18 11 9 355 350 42 68 335 357 336 344 328 359 25 38 357 353 356 335 344 300 261 271 58 1 339 29 26 276 299 211 252 215 236 243 268 264 250 250 248 256 258
356 356 22 16 15 358 355 50 55 9 41 328 343 317 349 9 323 5 353 341 49 1 300 12 325 16 2 335 277 222 175 251 235 217 266 238 235 244 232 249 251 257 254 271 263
355 342 315 12 359 355 355 49 231 311 321 309 323 302 309 340 313 353 329 252 108 46 49 304 248 319 309 304 274 166 190 154 294 251 253 215 278 297 267 267 274 260 278 315 265
360 7 30 3 318 315 60 257 331 294 292 274 290 281 317 321 330 355 296 259 142 126 163 229 294 257 292 317 275 232 187 232 206 246 243 252 241 243 17 12 329 323 313 309 309
0 29 23 354 12 1 110 237 290 326 341 283 272 290 281 288 282 275 254 294 159 199 155 202 224 274 341 228 249 337 348 234 215 222 247 290 248 191 183 261 308 309 311 309 298
355 4 358 349 51 11 335 291 318 311 315 317 329 271 265 302 259 235 233 217 207 206 268 164 260 260 244 276 283 251 247 184 242 245 254 274 248 270 68 327 296 250 296 302 309
341 309 336 4 62 330 307 314 303 318 309 331 289 264 293 288 308 237 269 250 201 145 172 186 236 281 305 350 9 201 208 220 231 245 241 254 240 220 293 283 255 271 297 293 292
343 353 335 2 19 61 332 282 311 312 314 349 294 302 301 292 235 281 295 314 202 222 250 231 222 216 261 266 269 279 276 275 256 243 262 247 279 295 296 296 290 285 278 297 265
11 324 3 299 328 317 294 274 319 339 360 317 320 331 333 297 263 245 299 299 292 287 281 167 251 222 254 269 275 274 279 289 252 252 255 270 272 278 286 280 251 254 276 294 271
346 348 315 296 288 275 300 314 315 329 328 309 328 306 254 283 230 301 302 301 254 281 144 177 252 261 274 263 271 288 287 299 299 252 253 258 268 340 287 283 232 296 285 298 331
332 312 302 278 298 312 254 339 310 323 314 327 322 306 308 278 295 285 276 270 241 213 117 44 313 283 272 331 307 186 359 327 317 305 328 304 359 328 327 325 321 318 333 316 313